+ View the NASA Portal
+ Center for Near-Earth Object Studies
IMPORTANT:
The SSD Announcement email list is now available. Major changes are coming in the near future, including possible hostname and/or URL changes. To be notified of such changes, subscribe to this email list.
Please visit
this page
for more details.
Don't show this message again
JPL Small-Body Database Browser
Search:
[
help
]
146292 (2001 HZ13)
Classification:
Main-belt Asteroid
SPK-ID:
2146292
[
Ephemeris
|
Orbit Diagram
|
Orbital Elements
|
Mission Design
|
Physical Parameters
|
Discovery Circumstances
]
[ show orbit diagram ]
Orbital Elements at Epoch 2458600.5 (2019-Apr-27.0) TDB
Reference:
JPL 12
(heliocentric ecliptic J2000)
Element
Value
Uncertainty (1-sigma)
Units
e
.1582911068985522
7.0931e-08
a
2.320055482443053
1.2555e-08
au
q
1.952811332061088
1.6846e-07
au
i
4.786558171950022
3.8357e-06
deg
node
260.3361931388151
7.9921e-05
deg
peri
95.6821601838262
8.0552e-05
deg
M
265.2591086151937
1.2089e-05
deg
t
p
2458940.188581849382
(2020-Mar-31.68858185)
4.4233e-05
TDB
period
1290.76144079207
3.53
1.0478e-05
2.869e-08
d
yr
n
.2789051397282892
2.264e-09
deg/d
Q
2.687299632825018
1.4543e-08
au
Orbit Determination Parameters
# obs. used (total)
488
data-arc span
6618 days (18.12 yr)
first obs. used
2000-02-02
last obs. used
2018-03-17
planetary ephem.
DE431
SB-pert. ephem.
SB431-N16
condition code
0
norm. resid. RMS
.56762
source
ORB
producer
Otto Matic
solution date
2019-Jul-13 06:33:45
Additional Information
Earth MOID
= .954589 au
Jupiter MOID
= 2.76844 au
T_jup
= 3.557
[ show covariance matrix ]
[
Ephemeris
|
Orbit Diagram
|
Orbital Elements
|
Mission Design
|
Physical Parameters
|
Discovery Circumstances
]
Physical Parameter Table
Parameter
Symbol
Value
Units
Sigma
Reference
Notes
absolute magnitude
H
16.1
n/a
MPO338248
146292 (2001 HZ13)
Discovered 2001-Apr-21 by Bickel, W. at Bergisch Gladbach
Reference:
20070106/Numbers.arc
Last Updated:
2007-01-09
Alternate Designations
2001 HZ13
= 2000 CH5
[
Ephemeris
|
Orbit Diagram
|
Orbital Elements
|
Mission Design
|
Physical Parameters
|
Discovery Circumstances
]
2019-Dec-10 08:12 UT
(server date/time)
Site Manager:
Ryan S. Park
Webmaster
:
Alan B. Chamberlin